Weather History for KRYV - January, 2013

Change the Weather History Date:

Wednesday, January 16, 2013

  Actual Average (WUND) Record (WUND)
Temperature  
Mean Temperature 24 °F -  
Max Temperature 32 °F - - (-1)
Min Temperature 15 °F - - (-1)
Degree Days  
Heating Degree Days 42    
Moisture  
Dew Point 18 °F    
Average Humidity 73    
Maximum Humidity 87    
Minimum Humidity 56    
Precipitation  
Precipitation 0.00 in - - ()
Sea Level Pressure  
Sea Level Pressure 29.89 in    
Wind  
Wind Speed 9 mph (SW)    
Max Wind Speed 20 mph    
Max Gust Speed 26 mph    
Visibility 10 miles    
Events      
Averages and records for this station are not official NWS values.
T = Trace of Precipitation, MM = Missing Value Source: NWS Daily Summary

Daily Weather History Graph

Daily Weather History Graph

Search for Another Location

Airport or City:

Trip Planner

Search our weather history database for the weather conditions in past years. The results will help you decide how hot, cold, wet, or windy it might be!

Date:

Astronomy

Jan. 16, 2013 Rise Set
Actual Time 7:23 AM CST 4:46 PM CST
Civil Twilight 6:51 AM CST 5:18 PM CST
Nautical Twilight 6:16 AM CST 5:53 PM CST
Astronomical Twilight 5:42 AM CST 6:27 PM CST
Moon 9:49 AM CST (1/16) 10:49 PM CST (1/16)
Length of Visible Light 10h 26m
Length of Day
9h 23m
Waxing Crescent, 28% of the Moon is Illuminated
Jan 16
Waxing Crescent
Jan 18
First Quarter
Jan 26
Full
Feb 3
Last Quarter
Feb 10
New

Hourly Weather History & Observations

Time (CST) Temp. Windchill Dew Point Humidity Pressure Visibility Wind Dir Wind Speed Gust Speed Precip Events Conditions
12:15 AM 15.6 °F 8.3 °F 11.1 °F 82% 30.05 in 10.0 mi South 4.6 mph - N/A   Clear
12:35 AM 16.7 °F 9.6 °F 11.3 °F 79% 30.04 in 10.0 mi South 4.6 mph - N/A   Clear
12:55 AM 16.2 °F 7.6 °F 11.1 °F 81% 30.03 in 10.0 mi SSW 5.8 mph - N/A   Clear
1:35 AM 15.4 °F 6.8 °F 10.4 °F 80% 30.01 in 10.0 mi SSW 5.8 mph - N/A   Clear
1:55 AM 16.0 °F 7.4 °F 10.4 °F 79% 30.00 in 10.0 mi SSW 5.8 mph - N/A   Clear
2:15 AM 15.4 °F 8.1 °F 10.0 °F 79% 30.00 in 10.0 mi South 4.6 mph - N/A   Clear
2:35 AM 15.4 °F 6.8 °F 10.2 °F 80% 29.99 in 10.0 mi South 5.8 mph - N/A   Clear
2:55 AM 16.3 °F 6.7 °F 10.2 °F 77% 29.98 in 10.0 mi SSW 6.9 mph - N/A   Clear
3:15 AM 16.3 °F 6.7 °F 9.9 °F 76% 29.97 in 10.0 mi SSW 6.9 mph - N/A   Clear
3:35 AM 16.7 °F 6.2 °F 9.5 °F 73% 29.96 in 10.0 mi SSW 8.1 mph - N/A   Clear
3:55 AM 17.4 °F 7.1 °F 9.5 °F 71% 29.94 in 10.0 mi South 8.1 mph - N/A   Clear
4:15 AM 18.0 °F 5.4 °F 9.3 °F 69% 29.93 in 10.0 mi SSW 11.5 mph 16.1 mph N/A   Clear
4:35 AM 18.0 °F 4.8 °F 9.1 °F 68% 29.91 in 10.0 mi SSW 12.7 mph 17.3 mph N/A   Clear
4:55 AM 18.1 °F 3.9 °F 8.6 °F 66% 29.91 in 10.0 mi SSW 15.0 mph - N/A   Clear
5:15 AM 17.6 °F 4.3 °F 8.6 °F 68% 29.91 in 10.0 mi SSW 12.7 mph - N/A   Clear
6:35 AM 18.3 °F 5.2 °F 9.3 °F 68% 29.85 in 10.0 mi SSW 12.7 mph - N/A   Clear
6:55 AM 18.5 °F 6.8 °F 9.1 °F 67% 29.85 in 10.0 mi SSW 10.4 mph 20.7 mph N/A   Clear
7:15 AM 18.7 °F 5.1 °F 9.3 °F 67% 29.85 in 10.0 mi SSW 13.8 mph 18.4 mph N/A   Clear
7:35 AM 19.4 °F 6.0 °F 10.0 °F 67% 29.84 in 10.0 mi SSW 13.8 mph - N/A   Clear
7:55 AM 21.0 °F 7.6 °F 10.9 °F 65% 29.84 in 10.0 mi SSW 15.0 mph - N/A   Mostly Cloudy
8:15 AM 21.2 °F 7.8 °F 11.3 °F 66% 29.84 in 10.0 mi SSW 15.0 mph 20.7 mph N/A   Overcast
8:35 AM 22.1 °F 8.5 °F 12.6 °F 67% 29.83 in 10.0 mi SSW 16.1 mph 23.0 mph N/A   Overcast
8:55 AM 22.8 °F 10.9 °F 13.1 °F 66% 29.82 in 10.0 mi SSW 12.7 mph - N/A   Overcast
9:15 AM 23.7 °F 11.0 °F 14.0 °F 66% 29.81 in 10.0 mi SW 15.0 mph 25.3 mph N/A   Overcast
9:55 AM 24.8 °F 11.1 °F 15.4 °F 68% 29.78 in 10.0 mi SSW 18.4 mph 25.3 mph N/A   Overcast
10:15 AM 25.7 °F 12.7 °F 16.3 °F 68% 29.78 in 10.0 mi SW 17.3 mph 25.3 mph N/A   Overcast
10:35 AM 26.6 °F 13.4 °F 16.3 °F 65% 29.76 in 10.0 mi SW 18.4 mph 23.0 mph N/A   Overcast
10:55 AM 27.5 °F 16.3 °F 16.2 °F 62% 29.76 in 10.0 mi SW 13.8 mph 24.2 mph N/A   Overcast
11:15 AM 27.5 °F 14.2 °F 15.8 °F 61% 29.76 in 10.0 mi SW 19.6 mph 26.5 mph N/A   Overcast
11:35 AM 28.4 °F 18.5 °F 17.4 °F 63% 29.75 in 10.0 mi SW 11.5 mph 18.4 mph N/A   Overcast
11:55 AM 28.4 °F 17.5 °F 18.3 °F 66% 29.75 in 10.0 mi SW 13.8 mph 18.4 mph N/A   Overcast
12:15 PM 30.0 °F 20.5 °F 19.4 °F 65% 29.74 in 10.0 mi SW 11.5 mph 17.3 mph N/A   Overcast
12:35 PM 30.7 °F 20.9 °F 20.3 °F 65% 29.75 in 10.0 mi WSW 12.7 mph 18.4 mph N/A   Overcast
12:55 PM 30.2 °F 20.2 °F 21.0 °F 69% 29.75 in 10.0 mi WSW 12.7 mph 19.6 mph N/A   Overcast
1:15 PM 30.6 °F 20.7 °F 21.4 °F 69% 29.74 in 10.0 mi WSW 12.7 mph 17.3 mph N/A   Overcast
1:55 PM 30.2 °F 21.3 °F 23.9 °F 77% 29.75 in 10.0 mi WSW 10.4 mph - N/A   Overcast
2:55 PM 31.1 °F 23.1 °F 24.6 °F 77% 29.77 in 10.0 mi WSW 9.2 mph - N/A   Overcast
3:15 PM 31.6 °F 23.7 °F 25.5 °F 78% 29.78 in 10.0 mi WSW 9.2 mph - N/A   Overcast
4:15 PM 31.6 °F 22.1 °F 26.1 °F 80% 29.83 in 10.0 mi West 12.7 mph - N/A   Overcast
4:35 PM 31.8 °F 23.3 °F 26.4 °F 80% 29.85 in 10.0 mi West 10.4 mph - N/A   Overcast
4:55 PM 31.8 °F 24.6 °F 26.6 °F 81% 29.85 in 10.0 mi WSW 8.1 mph - N/A   Overcast
5:15 PM 31.8 °F 25.4 °F 26.6 °F 81% 29.86 in 10.0 mi West 6.9 mph - N/A   Overcast
5:35 PM 31.8 °F 26.2 °F 26.6 °F 81% 29.87 in 10.0 mi WSW 5.8 mph - N/A   Overcast
5:55 PM 31.8 °F 26.2 °F 27.0 °F 82% 29.88 in 10.0 mi WSW 5.8 mph - N/A   Overcast
6:15 PM 31.6 °F 27.0 °F 27.0 °F 83% 29.89 in 10.0 mi WSW 4.6 mph - N/A   Overcast
7:15 PM 31.8 °F 26.2 °F 27.3 °F 83% 29.91 in 10.0 mi WSW 5.8 mph - N/A   Overcast
7:35 PM 31.8 °F 27.3 °F 27.1 °F 83% 29.93 in 10.0 mi WSW 4.6 mph - N/A   Overcast
7:55 PM 31.8 °F 27.3 °F 27.3 °F 83% 29.93 in 10.0 mi WSW 4.6 mph - N/A   Overcast
8:55 PM 31.8 °F 28.5 °F 27.9 °F 85% 29.96 in 10.0 mi WSW 3.5 mph - N/A   Overcast
9:15 PM 31.6 °F - 27.9 °F 86% 29.97 in 10.0 mi Calm Calm - N/A   Overcast
9:35 PM 32.0 °F - 28.0 °F 85% 29.98 in 10.0 mi Calm Calm - N/A   Overcast
9:55 PM 32.0 °F 25.6 °F 28.4 °F 87% 30.00 in 10.0 mi WNW 6.9 mph - N/A   Overcast
10:15 PM 32.4 °F 23.0 °F 27.7 °F 83% 30.00 in 10.0 mi NNW 12.7 mph - N/A   Overcast
10:35 PM 31.8 °F 21.0 °F 25.3 °F 77% 30.01 in 10.0 mi NNW 16.1 mph 21.9 mph N/A   Mostly Cloudy
10:55 PM 29.8 °F 20.3 °F 15.8 °F 56% 30.03 in 10.0 mi NNW 11.5 mph - N/A   Scattered Clouds
11:35 PM 27.5 °F 18.6 °F 16.7 °F 64% 30.03 in 10.0 mi NNW 9.2 mph - N/A   Clear
11:55 PM 26.8 °F 20.2 °F 16.9 °F 66% 30.04 in 10.0 mi NNW 5.8 mph - N/A   Clear